TimePST,TemperatureF,Dew PointF,Humidity,Sea Level PressureIn,VisibilityMPH,Wind Direction,Wind SpeedMPH,Gust SpeedMPH,PrecipitationIn,Events,Conditions,WindDirDegrees,DateUTC
12:53 AM,50.0,37.9,63,30.25,10.0,Calm,Calm,-,N/A,,Clear,0,2013-11-13 08:53:00
1:53 AM,48.0,37.0,66,30.25,10.0,Calm,Calm,-,N/A,,Clear,0,2013-11-13 09:53:00
2:53 AM,46.9,37.9,71,30.24,10.0,Calm,Calm,-,N/A,,Clear,0,2013-11-13 10:53:00
3:53 AM,46.0,37.0,71,30.23,10.0,Calm,Calm,-,N/A,,Clear,0,2013-11-13 11:53:00
4:53 AM,46.0,37.0,71,30.22,10.0,Calm,Calm,-,N/A,,Clear,0,2013-11-13 12:53:00
5:53 AM,46.0,37.9,73,30.22,10.0,Calm,Calm,-,N/A,,Clear,0,2013-11-13 13:53:00
6:53 AM,46.0,37.9,73,30.22,10.0,Calm,Calm,-,N/A,,Clear,0,2013-11-13 14:53:00
7:53 AM,50.0,41.0,71,30.24,10.0,West,3.5,-,N/A,,Clear,270,2013-11-13 15:53:00
8:53 AM,55.0,43.0,64,30.25,10.0,Calm,Calm,-,N/A,,Clear,0,2013-11-13 16:53:00
9:53 AM,61.0,41.0,48,30.24,10.0,Calm,Calm,-,N/A,,Clear,0,2013-11-13 17:53:00
10:53 AM,66.0,41.0,40,30.22,10.0,Calm,Calm,-,N/A,,Clear,0,2013-11-13 18:53:00
11:53 AM,73.0,39.9,30,30.17,10.0,Calm,Calm,-,N/A,,Partly Cloudy,0,2013-11-13 19:53:00
12:53 PM,77.0,39.0,25,30.14,10.0,Variable,3.5,-,N/A,,Clear,0,2013-11-13 20:53:00
1:53 PM,78.1,41.0,27,30.12,10.0,South,3.5,-,N/A,,Clear,170,2013-11-13 21:53:00
2:53 PM,79.0,43.0,28,30.10,10.0,WSW,4.6,-,N/A,,Clear,240,2013-11-13 22:53:00
3:53 PM,73.9,43.0,33,30.11,10.0,West,8.1,-,N/A,,Scattered Clouds,280,2013-11-13 23:53:00
4:53 PM,69.1,46.9,45,30.11,10.0,West,4.6,-,N/A,,Clear,270,2013-11-14 00:53:00
5:53 PM,64.9,46.9,52,30.11,10.0,Calm,Calm,-,N/A,,Partly Cloudy,0,2013-11-14 01:53:00
6:53 PM,60.1,46.0,60,30.11,10.0,Calm,Calm,-,N/A,,Clear,0,2013-11-14 02:53:00
7:53 PM,60.1,45.0,57,30.10,10.0,Calm,Calm,-,N/A,,Clear,0,2013-11-14 03:53:00
8:53 PM,57.0,44.1,62,30.10,10.0,Calm,Calm,-,N/A,,Clear,0,2013-11-14 04:53:00
9:53 PM,55.0,44.1,67,30.11,10.0,Calm,Calm,-,N/A,,Clear,0,2013-11-14 05:53:00
10:53 PM,53.1,43.0,69,30.11,10.0,Calm,Calm,-,N/A,,Clear,0,2013-11-14 06:53:00
11:53 PM,51.1,42.1,71,30.11,10.0,ENE,3.5,-,N/A,,Clear,70,2013-11-14 07:53:00